Orbital Elements at Epoch 2452749.5 (2003-Apr-20.0) TDB
Reference: JPL 59 (heliocentric ecliptic J2000)
Element | Value | Uncertainty (1-sigma) | Units |
e | .8350738462769237 | 5.3339e-08 | |
a | 7.72123378622071 | 6.629e-08 | au |
q | 1.273433390358047 | 4.1229e-07 | au |
i | 95.69806814972893 | 2.316e-05 | deg |
node | 1.415670065293847 | 4.2944e-05 | deg |
peri | 47.13845022529085 | 3.5656e-05 | deg |
M | 323.5772227049488 | 2.6451e-06 | deg |
tp | 2453542.364618675136 (2005-Jun-20.86461868) | 5.816e-05 | TDB |
period | 7836.614446252856 21.46 | 0.00010092 2.763e-07 | d yr |
n | .045938204880315 | 5.916e-10 | deg/d |
Q | 14.16903418208337 | 1.2165e-07 | au |
|
| | Orbit Determination Parameters
Additional Information
|